www.pogodaiklimat.ru

Погода и климат >> Архив погоды >> Австралия >> Северная территория >> Мыс Уэссел


ПОГОДА на Мысе Уэссел

  • Прогноз погоды на Мысе Уэссел
  • Монитор погоды на Мысе Уэссел

АРХИВ ПОГОДЫ на Мысе Уэссел

Время (UTC), дата Ветер
(напр.,м/с)
 
Видим.   Явления Облачность Т
(С)
Тd
(С)
f
(%)
Тe
(С)
Тes
(С)
Комфортность P
(гПа)
Po
(гПа)
Тmin
(С)
Tmax
(С)
R
(мм)
R24
(мм)
S
(см)
17 12.06 ЮВ 8 н/о н/о +25.3 +21.8 81 +33 +33 очень
душно
1012.6 1010.4
18 12.06 ЮВ 8 н/о н/о +25.3 +21.4 79 +32 +32 очень
душно
1012.2 1010.0
20 12.06 ЮВ 8 н/о н/о +25.3 +21.8 81 +33 +33 очень
душно
1012.4 1010.2
21 12.06 ЮВ 8 н/о н/о +25.2 +21.7 81 +32 +32 очень
душно
1012.6 1010.4
23 12.06 ЮВ 8 н/о н/о +26.4 +22.5 79 +35 +35 очень
душно
1013.7 1011.5
00 13.06 ЮВ 8 н/о н/о +28.1 +22.1 70 +37 +37 очень
душно
1014.1 1011.9
02 13.06 ЮВ 7 н/о н/о +29.9 +23.6 69 +41 +41 опасность
перегрева
1013.5 1011.3 +25.0
03 13.06 В 8 н/о н/о +28.5 +22.5 70 +37 +37 очень
душно
1012.8 1010.6
05 13.06 В 9 н/о н/о +29.3 +20.2 58 +36 +36 очень
душно
1011.0 1008.8
06 13.06 В 8 н/о н/о +28.8 +21.6 65 +37 +37 очень
душно
1010.6 1008.4
08 13.06 ЮВ 9 н/о н/о +26.7 +20.8 70 +33 +33 очень
душно
1011.5 1009.3
09 13.06 ЮВ 9 н/о н/о +26.1 +21.1 74 +33 +33 очень
душно
1012.0 1009.8
11 13.06 ЮВ 10 н/о н/о +25.8 +20.4 72 +32 +32 очень
душно
1013.1 1010.9
12 13.06 ЮВ 10 н/о н/о +25.8 +19.9 70 +32 +32 очень
душно
1013.5 1011.3
14 13.06 ЮВ 9 н/о н/о +25.5 +20.5 74 +32 +32 очень
душно
1013.2 1011.0 +30.3
15 13.06 ЮВ 9 н/о н/о +25.5 +20.5 74 +32 +32 очень
душно
1012.8 1010.6
17 13.06 ЮВ 7 н/о н/о +25.5 +21.2 77 +32 +32 очень
душно
1012.3 1010.1
18 13.06 ЮВ 7 н/о н/о +25.3 +21.8 81 +33 +33 очень
душно
1011.8 1009.6
20 13.06 ЮВ 8 н/о н/о +25.1 +22.0 83 +32 +32 очень
душно
1011.7 1009.5
21 13.06 ЮВ 7 н/о н/о +25.0 +21.3 80 +32 +32 очень
душно
1012.3 1010.1
23 13.06 ЮВ 7 н/о н/о +26.9 +22.3 76 +35 +35 очень
душно
1013.9 1011.7
00 14.06 ЮВ 8 н/о н/о +27.8 +22.7 74 +37 +37 очень
душно
1013.9 1011.7
02 14.06 ЮВ 9 н/о н/о +29.4 +22.6 67 +39 +39 очень
душно
1013.0 1010.8 +24.9
03 14.06 ЮВ 9 н/о н/о +29.6 +23.3 69 +40 +40 очень
душно
1012.3 1010.1
05 14.06 ЮВ 10 н/о н/о +28.2 +22.9 73 +38 +38 очень
душно
1010.9 1008.7
06 14.06 ЮВ 10 н/о н/о +27.1 +21.6 72 +35 +35 очень
душно
1010.6 1008.4
08 14.06 ЮВ 9 н/о н/о +26.7 +21.0 71 +34 +34 очень
душно
1010.6 1008.4
09 14.06 ЮВ 9 н/о н/о +26.1 +20.9 73 +33 +33 очень
душно
1011.0 1008.8
11 14.06 ЮВ 9 н/о н/о +26.0 +20.8 73 +33 +33 очень
душно
1012.3 1010.1
12 14.06 ЮВ 9 н/о н/о +25.6 +21.5 78 +33 +33 очень
душно
1012.7 1010.5
14 14.06 ЮВ 9 н/о н/о +25.5 +21.2 77 +32 +32 очень
душно
1012.8 1010.6 +30.3
15 14.06 ЮВ 8 н/о н/о +25.1 +20.8 77 +31 +31 очень
душно
1012.6 1010.4
17 14.06 ЮВ 8 н/о н/о +24.9 +20.2 75 +31 +31 очень
душно
1011.7 1009.5
18 14.06 ЮВ 8 н/о н/о +25.0 +20.9 78 +31 +31 очень
душно
1011.4 1009.2
20 14.06 ЮВ 6 н/о н/о +24.7 +21.2 81 +31 +31 очень
душно
1011.5 1009.3
21 14.06 ЮВ 7 н/о н/о +25.2 +21.5 80 +32 +32 очень
душно
1012.3 1010.1
23 14.06 ЮВ 10 н/о н/о +24.9 +22.8 88 +33 +33 очень
душно
1013.6 1011.4
00 15.06 В 6 н/о н/о +24.2 +22.6 91 +32 +32 очень
душно
1014.0 1011.8
02 15.06 В 11 н/о в посл. час дождь {туман} н/о +24.2 +23.2 94 +32 +32 очень
душно
1013.5 1011.3 +24.1
03 15.06 ЮВ 8 н/о н/о +24.8 +21.9 84 +32 +32 очень
душно
1012.7 1010.5
05 15.06 В 7 н/о {туман} н/о +24.5 +22.8 90 +32 +32 очень
душно
1011.2 1009.0 2
06 15.06 ЮВ 9 н/о н/о +26.9 +23.4 81 +36 +36 очень
душно
1010.9 1008.7
08 15.06 ЮВ 8 н/о {туман} н/о +25.9 +22.2 80 +34 +34 очень
душно
1011.5 1009.3
09 15.06 ЮВ 8 н/о н/о +25.5 +22.2 82 +33 +33 очень
душно
1011.9 1009.7
11 15.06 В 9 н/о {туман} н/о +25.5 +22.4 83 +33 +33 очень
душно
1013.0 1010.8 0.2
12 15.06 ЮВ 8 н/о н/о +25.5 +22.8 85 +34 +34 очень
душно
1013.5 1011.3
14 15.06 ЮВ 9 н/о н/о +25.5 +22.6 84 +34 +34 очень
душно
1013.6 1011.4 +27.4
15 15.06 ЮВ 8 н/о н/о +25.5 +22.0 81 +33 +33 очень
душно
1013.6 1011.4
17 15.06 ЮВ 8 н/о н/о +25.0 +21.1 79 +32 +32 очень
душно
1012.9 1010.7
18 15.06 ЮВ 7 н/о н/о +24.8 +21.3 81 +31 +31 очень
душно
1012.7 1010.5
20 15.06 ЮВ 8 н/о н/о +24.9 +21.2 80 +31 +31 очень
душно
1012.7 1010.5
21 15.06 ЮВ 7 н/о н/о +24.8 +21.3 81 +31 +31 очень
душно
1013.0 1010.8
23 15.06 ЮВ 7 н/о н/о +26.9 +21.4 72 +34 +34 очень
душно
1014.0 1011.8 3
00 16.06 ЮВ 7 н/о н/о +28.8 +21.8 66 +37 +37 очень
душно
1014.3 1012.1
02 16.06 ЮВ 7 н/о н/о +28.7 +21.2 64 +36 +36 очень
душно
1013.9 1011.7 +24.0
03 16.06 В 10 н/о н/о +25.3 +22.2 83 +33 +33 очень
душно
1013.4 1011.2
05 16.06 В 5 н/о н/о +26.9 +22.5 77 +35 +35 очень
душно
1012.0 1009.8
06 16.06 В 6 н/о н/о +26.4 +22.5 79 +35 +35 очень
душно
1011.6 1009.4
08 16.06 ЮВ 7 н/о н/о +26.3 +22.4 79 +34 +34 очень
душно
1012.1 1009.9
09 16.06 ЮВ 9 н/о н/о +26.1 +21.5 76 +33 +33 очень
душно
1012.6 1010.4
11 16.06 ЮВ 7 н/о н/о +25.3 +22.2 83 +33 +33 очень
душно
1013.8 1011.6
12 16.06 ЮВ 8 н/о н/о +25.3 +21.2 78 +32 +32 очень
душно
1014.3 1012.1
14 16.06 ЮВ 7 н/о н/о +25.3 +21.2 78 +32 +32 очень
душно
1014.2 1012.0 +30.2
15 16.06 ЮВ 8 н/о н/о +25.1 +20.8 77 +31 +31 очень
душно
1013.8 1011.6
17 16.06 ЮВ 7 н/о н/о +24.5 +20.2 77 +30 +30 очень
душно
1013.0 1010.8
18 16.06 ЮВ 6 н/о н/о +24.3 +20.4 79 +30 +30 очень
душно
1012.8 1010.6
20 16.06 ЮВ 7 н/о н/о +25.2 +20.0 73 +31 +31 очень
душно
1012.9 1010.7
21 16.06 ЮВ 8 н/о н/о +25.0 +20.3 75 +31 +31 очень
душно
1013.2 1011.0
23 16.06 ЮВ 8 н/о н/о +27.1 +21.4 71 +34 +34 очень
душно
1014.4 1012.2
00 17.06 ЮВ 9 н/о н/о +28.2 +22.0 69 +36 +36 очень
душно
1014.7 1012.5
02 17.06 ЮВ 9 н/о н/о +29.4 +22.1 65 +38 +38 очень
душно
1014.1 1011.9 +24.2
03 17.06 ЮВ 7 н/о н/о +26.8 +21.8 74 +34 +34 очень
душно
1013.5 1011.3
05 17.06 ЮВ 9 н/о н/о +29.3 +23.7 72 +40 +40 очень
душно
1012.1 1009.9
06 17.06 В 10 н/о н/о +28.2 +20.7 64 +35 +35 очень
душно
1011.7 1009.5
08 17.06 ЮВ 10 н/о н/о +26.3 +22.2 78 +34 +34 очень
душно
1012.0 1009.8
09 17.06 ЮВ 10 н/о н/о +25.9 +21.8 78 +33 +33 очень
душно
1012.5 1010.3
11 17.06 ЮВ 9 н/о н/о +25.6 +21.7 79 +33 +33 очень
душно
1014.2 1012.0
12 17.06 ЮВ 8 н/о н/о +25.4 +22.3 83 +33 +33 очень
душно
1014.7 1012.5
14 17.06 ЮВ 9 н/о н/о +25.1 +22.0 83 +32 +32 очень
душно
1014.6 1012.4 +30.2
15 17.06 ЮВ 9 н/о н/о +25.3 +21.6 80 +32 +32 очень
душно
1014.2 1012.0
17 17.06 ЮВ 10 н/о н/о +25.0 +21.5 81 +32 +32 очень
душно
1013.2 1011.0
18 17.06 ЮВ 9 н/о н/о +24.8 +21.5 82 +32 +32 очень
душно
1013.1 1010.9
20 17.06 Ю 8 н/о н/о +24.7 +21.6 83 +32 +32 очень
душно
1013.2 1011.0
21 17.06 Ю 8 н/о н/о +25.0 +22.1 84 +32 +32 очень
душно
1013.5 1011.3
23 17.06 Ю 9 н/о н/о +27.2 +22.8 77 +36 +36 очень
душно
1014.4 1012.2
00 18.06 ЮВ 13 н/о н/о +23.8 +22.4 92 +31 +31 очень
душно
1014.7 1012.5
02 18.06 ЮВ 11 н/о {туман} н/о +26.6 +22.0 76 +34 +34 очень
душно
1013.9 1011.7 +23.6
03 18.06 ЮВ 12 н/о н/о +26.4 +20.9 72 +33 +33 очень
душно
1013.4 1011.2
05 18.06 ЮВ 12 н/о {туман} н/о +26.4 +20.5 70 +33 +33 очень
душно
1012.3 1010.1 0.4
06 18.06 ЮВ 12 н/о н/о +27.3 +19.4 62 +33 +33 очень
душно
1011.9 1009.7
08 18.06 ЮВ 12 н/о н/о +25.9 +20.0 70 +32 +32 очень
душно
1012.4 1010.2
09 18.06 Ю 12 н/о н/о +25.8 +19.0 66 +31 +31 очень
душно
1012.8 1010.6
11 18.06 ЮВ 12 н/о н/о +25.9 +19.5 68 +31 +31 очень
душно
1013.9 1011.7
12 18.06 ЮВ 12 н/о н/о +25.7 +19.1 67 +31 +31 очень
душно
1014.2 1012.0
14 18.06 ЮВ 11 н/о н/о +25.6 +19.3 68 +31 +31 очень
душно
1013.9 1011.7 +28.3
15 18.06 ЮВ 11 н/о н/о +25.5 +19.9 71 +31 +31 очень
душно
1013.8 1011.6
17 18.06 ЮВ 10 н/о н/о +25.3 +19.2 69 +30 +30 душно 1013.0 1010.8
18 18.06 ЮВ 10 н/о н/о +25.0 +19.1 70 +30 +30 душно 1012.7 1010.5
20 18.06 ЮВ 10 н/о н/о +24.5 +19.3 73 +30 +30 очень
душно
1012.9 1010.7
21 18.06 ЮВ 9 н/о н/о +24.5 +20.0 76 +30 +30 очень
душно
1013.2 1011.0
23 18.06 ЮВ 10 н/о н/о +26.4 +20.7 71 +33 +33 очень
душно
1014.7 1012.5 0.4
00 19.06 ЮВ 10 н/о н/о +27.3 +20.6 67 +34 +34 очень
душно
1014.7 1012.5
02 19.06 Ю 10 н/о н/о +28.4 +20.7 63 +35 +35 очень
душно
1013.2 1011.0 +23.5
03 19.06 ЮВ 11 н/о н/о +27.3 +21.1 69 +34 +34 очень
душно
1012.9 1010.7
05 19.06 ЮВ 11 н/о н/о +26.4 +21.2 73 +33 +33 очень
душно
1011.3 1009.1
06 19.06 ЮВ 11 н/о н/о +26.2 +20.8 72 +33 +33 очень
душно
1011.1 1008.9
08 19.06 ЮВ 9 н/о н/о +23.3 +21.6 90 +31 +31 очень
душно
1012.0 1009.8
09 19.06 ЮВ 11 н/о н/о +23.7 +22.5 93 +31 +31 очень
душно
1012.3 1010.1
11 19.06 ЮВ 10 н/о {туман} н/о +24.6 +22.3 87 +32 +32 очень
душно
1013.3 1011.1 0.4
12 19.06 Ю 10 н/о н/о +24.8 +21.9 84 +32 +32 очень
душно
1013.4 1011.2
14 19.06 ЮВ 8 н/о туман местами н/о +24.7 +22.4 87 +32 +32 очень
душно
1013.3 1011.1 +29.0
15 19.06 ЮВ 8 н/о н/о +23.2 +21.8 92 +31 +31 очень
душно
1013.4 1011.2

 

Местоположение метеостанции Мыс Уэссел (Северная территория, Австралия): широта -11.01 долгота 136.75 высота над уровнем моря 19 м.

В архиве по умолчанию представлена погода на Мысе Уэссел за последнюю неделю. Архивные данные за месяц целиком и за предыдущие месяцы, начиная с января 2011 года, Вы можете получить, выбрав интересующий диапазон дат из раскрывающегося списка и нажав кнопку "Ввод!".


*Определитесь, кто Вы:
робот инопланетянин человек

Внимание! Время в таблицах - всемирное. Для получения местного времени необходимо прибавить поправку, которая равна 9.5 ч.

Смотрите также архив погоды в соседних городах и на ближайших метеорологических станциях:

Погода в Аэропорту Гоув (Северная территория, Австралия) (141 км)
Погода в Галивинку (Северная территория, Австралия) (169 км)
Погода в Милинджимби (Северная территория, Австралия) (236 км)
Погода на Острове Северо-восточный (Северная территория, Австралия) (294 км)
Погода в Манингриде (Северная территория, Австралия) (298 км)
Погода в Аэропорту Грут-Айленд (Северная территория, Австралия) (332 км)
Погода в Уорруви (Северная территория, Австралия) (374 км)
Погода в Булман Уимол (Северная территория, Австралия) (396 км)
Погода на Острове Маклер (Северная территория, Австралия) (412 км)
Погода в Джаберу (Северная территория, Австралия) (458 км)

Пояснения к столбцам:

Ветер - указаны скорость ветра в м/с - средняя за 10 мин, порывы в срок и между сроками (в фигурных скобках) и направление, откуда дует ветер: С - северный, СВ - северо-восточный, В - восточный, ЮВ - юго-восточный, Ю - южный, ЮЗ - юго-западный, З - западный, СЗ - северо-западный.
Видимость - горизонтальная дальность видимости в метрах или километрах. При видимости от 1 до 10 км при отсутствии осадков обычно наблюдается дымка, при ухудшении видимости до 1 км и менее - туман. В сухую погоду видимость может ухудшаться дымом, пылью или мглою.
Явления - указаны атмосферные явления, наблюдавшиеся в срок или в последний час перед сроком; фигурными скобками обозначены явления, наблюдавшиеся между сроками (за 1-3 часа до срока); квадратными скобками обозначены град или гололедные отложения с указанием их диаметра в мм.
Облачность - указаны через наклонную черту общая и нижняя облачность в баллах и высота нижней границы облаков в метрах; квадратными скобками обозначены формы облаков: Ci - перистые, Cs - перисто-слоистые, Cc - перисто-кучевые, Ac - высококучевые, As - высокослоистые, Sc - слоисто-кучевые, Ns - слоисто-дождевые, Cu - кучевые, Cb - кучево-дождевые. Подробнее классификацию облаков см. в Атласе облаков (PDF).
T - Температура воздуха - температура, измеренная на высоте 2 м над землей.
Td - Температура точки росы - температура, при понижении до которой содержащийся в воздухе водяной пар достигнет насыщения.
f - Относительная влажность воздуха - влажноcть воздуха, измеренная на высоте 2 м над землей.
Te - Эффективная температура - температура, которую ощущает одетый по сезону человек в тени. Характеристика душности погоды. При расчете учитывается влияние влажности воздуха и скорости ветра на теплоощущения человека.
Tes - Эффективная температура на солнце - температура, которую ощущает человек, с поправкой на солнечный нагрев. Характеристика знойности погоды. Зависит от высоты солнца над горизонтом, облачности и скорости ветра. Ночью, в пасмурную погоду, а также при ветре 12 м/с и более поправка равна нулю.
P - Атмосферное давление - приведенное к уровню моря атмосферное давление.
Po - Атмосферное давление - измеренное на уровне метеостанции атмосферное давление.
Tmin - Минимальная температура - минимум температуры воздуха на высоте 2 м над землей.
Tmax - Максимальная температура - максимум температуры воздуха на высоте 2 м над землей.
R - Количество осадков - Количество выпавших осадков за период времени, мм. При наведении курсора мыши на число - период времени, за который выпало указанное количество осадков.
R24 - Количество осадков - Количество выпавших осадков за 24 часа, мм.
S - Снежный покров - Высота снежного покрова, см. При наведении курсора мыши на число - состояние снежного покрова и степень покрытия местности в баллах.